Topeka, KS

7:11 PM CDT on October 14, 2019 (GMT -0500)
Billard Municipal

Weather History for KTOP - August, 2019

Change the Weather History Date:

Friday, August 16, 2019

  Actual Average Record
Temperature  
Mean Temperature 76 °F 78 °F  
Max Temperature 85 °F 89 °F 109 °F (1936)
Min Temperature 66 °F 67 °F 52 °F (1992)
Degree Days  
Heating Degree Days 0 0  
Month to date heating degree days 0 0  
Since 1 June heating degree days 0 8  
Since 1 July heating degree days 0 0  
Cooling Degree Days 11 13  
Month to date cooling degree days 208 217  
Year to date cooling degree days 1087 1059  
Since 1 June cooling degree days 975 933  
Growing Degree Days 25 (Base 50)    
Moisture  
Dew Point 68 °F    
Average Humidity 79    
Maximum Humidity 93    
Minimum Humidity 65    
Precipitation  
Precipitation 2.05 in 0.15 in 2.83 in (1996)
Month to date precipitation 5.37 2.18  
Year to date precipitation 34.23 24.51  
Snow  
Snow T in 0.00 in 0.00 in ()
Month to date snowfall T 0.0  
Year to date snowfall 18.5 11.3  
Since 1 July snowfall T 0.0  
Snow Depth 0.00 in    
Sea Level Pressure  
Sea Level Pressure 29.87 in    
Wind  
Wind Speed 8 mph (SSE)    
Max Wind Speed 33 mph    
Max Gust Speed 45 mph    
Visibility 10 miles    
Events Rain , Thunderstorm    
T = Trace of Precipitation, MM = Missing Value Source: NWS Daily Summary

Daily Weather History Graph

Daily Weather History Graph

Search for Another Location

Airport or City:

Astronomy

Aug. 16, 2019 Rise Set
Actual Time 6:36 AM CDT 8:16 PM CDT
Civil Twilight 6:08 AM CDT 8:44 PM CDT
Nautical Twilight 5:33 AM CDT 9:19 PM CDT
Astronomical Twilight 4:56 AM CDT 9:55 PM CDT
Moon 9:16 PM CDT (8/16) 7:29 AM CDT (8/16)
Length of Visible Light 14h 36m
Length of Day
13h 39m
Full, 99% of the Moon is Illuminated
Aug 16
Full
Aug 23
Last Quarter
Aug 30
New
Sep 5
First Quarter
Sep 13
Full

Hourly Weather History & Observations

Time (CDT) Temp. Heat Index Dew Point Humidity Pressure Visibility Wind Dir Wind Speed Gust Speed Precip Events Conditions
12:03 AM 71.1 °F - 66.9 °F 87% 29.92 in 10.0 mi Calm Calm - 0.00 in Rain , Thunderstorm Light Thunderstorms and Rain
12:18 AM 71.1 °F - 66.0 °F 84% 29.89 in 10.0 mi South 5.8 mph - 0.00 in Rain Light Rain
12:36 AM 70.0 °F - 66.0 °F 87% 29.90 in 10.0 mi West 10.4 mph - 0.00 in Rain , Thunderstorm Light Rain
12:53 AM 70.0 °F - 66.0 °F 87% 29.89 in 10.0 mi WSW 3.5 mph - 0.01 in Rain , Thunderstorm Light Rain
1:36 AM 69.1 °F - 66.9 °F 93% 29.93 in 4.0 mi SW 5.8 mph - 0.06 in Rain , Thunderstorm Thunderstorms and Rain
1:53 AM 69.1 °F - 66.0 °F 90% 29.88 in 6.0 mi East 5.8 mph - 0.17 in Rain , Thunderstorm Light Thunderstorms and Rain
2:37 AM 69.1 °F - 66.0 °F 90% 29.89 in 10.0 mi SSE 9.2 mph - 0.23 in Thunderstorm Thunderstorm
2:44 AM 69.1 °F - 66.0 °F 90% 29.89 in 10.0 mi SSE 16.1 mph 21.9 mph 0.23 in Thunderstorm Thunderstorm
2:53 AM 69.1 °F - 66.0 °F 90% 29.86 in 10.0 mi SSE 8.1 mph 23.0 mph 0.23 in Thunderstorm Thunderstorm
3:11 AM 68.0 °F - 64.9 °F 90% 29.88 in 10.0 mi South 10.4 mph 21.9 mph N/A   Mostly Cloudy
3:53 AM 68.0 °F - 64.0 °F 87% 29.86 in 10.0 mi SSE 4.6 mph - N/A   Mostly Cloudy
4:53 AM 66.9 °F - 64.0 °F 90% 29.86 in 10.0 mi East 3.5 mph - N/A   Clear
5:53 AM 66.0 °F - 63.0 °F 90% 29.87 in 10.0 mi ESE 3.5 mph - N/A   Clear
6:53 AM 66.9 °F - 64.0 °F 90% 29.89 in 10.0 mi Calm Calm - N/A   Clear
7:53 AM 68.0 °F - 64.0 °F 87% 29.92 in 10.0 mi East 5.8 mph - N/A   Mostly Cloudy
8:53 AM 69.1 °F - 64.0 °F 84% 29.94 in 10.0 mi East 4.6 mph - N/A   Overcast
9:53 AM 73.0 °F - 66.0 °F 79% 29.92 in 10.0 mi ESE 8.1 mph - N/A   Partly Cloudy
10:53 AM 75.0 °F - 66.0 °F 73% 29.94 in 10.0 mi South 6.9 mph 19.6 mph N/A   Mostly Cloudy
11:53 AM 78.1 °F - 68.0 °F 71% 29.92 in 10.0 mi South 15.0 mph 23.0 mph N/A   Clear
12:53 PM 79.0 °F - 69.1 °F 72% 29.89 in 10.0 mi South 9.2 mph - N/A   Clear
1:53 PM 80.1 °F 83.2 °F 70.0 °F 71% 29.84 in 10.0 mi SE 12.7 mph - N/A   Clear
2:42 PM 80.1 °F 82.9 °F 69.1 °F 69% 29.88 in 10.0 mi SSE 16.1 mph 29.9 mph N/A   Mostly Cloudy
2:53 PM 81.0 °F 84.1 °F 69.1 °F 67% 29.86 in 10.0 mi SSE 21.9 mph 27.6 mph N/A   Mostly Cloudy
3:53 PM 82.0 °F 85.9 °F 70.0 °F 67% 29.85 in 10.0 mi South 12.7 mph 25.3 mph N/A   Mostly Cloudy
4:08 PM 82.9 °F 87.0 °F 70.0 °F 65% 29.86 in 10.0 mi SSW 15.0 mph 24.2 mph N/A   Partly Cloudy
4:53 PM 84.0 °F 89.0 °F 71.1 °F 65% 29.83 in 10.0 mi SSW 10.4 mph - N/A   Partly Cloudy
5:53 PM 84.9 °F 90.1 °F 71.1 °F 63% 29.83 in 10.0 mi South 11.5 mph 18.4 mph N/A   Partly Cloudy
6:53 PM 82.9 °F 87.5 °F 71.1 °F 67% 29.81 in 10.0 mi SSE 8.1 mph - N/A   Clear
7:53 PM 80.1 °F 83.6 °F 71.1 °F 74% 29.81 in 10.0 mi SE 8.1 mph - N/A   Clear
8:53 PM 77.0 °F - 71.1 °F 82% 29.82 in 10.0 mi East 4.6 mph - N/A   Clear
9:53 PM 75.9 °F - 71.1 °F 85% 29.82 in 10.0 mi East 3.5 mph - N/A   Scattered Clouds
10:53 PM 75.9 °F - 71.1 °F 85% 29.82 in 10.0 mi ENE 4.6 mph - N/A   Scattered Clouds
11:37 PM 75.0 °F - 71.1 °F 87% 29.81 in 10.0 mi East 6.9 mph - N/A Thunderstorm Thunderstorm
11:53 PM 75.0 °F - 71.1 °F 87% 29.82 in 10.0 mi Variable 3.5 mph - N/A Thunderstorm Thunderstorm
11:58 PM 75.0 °F - 71.1 °F 87% 29.84 in 1.8 mi East 5.8 mph - 0.00 in Rain , Thunderstorm Heavy Thunderstorms and Rain